Location: Ernes
(49.0163°N, 0.1239°W)
Time: 20:51:19
(UTC+00:00)

Daily predictions for brighter satellites

Satellite Brightness Start Highest point End
(mag) Time Altitude Azimuth Time Altitude Azimuth Time Altitude Azimuth
H-2A R/B 4.1 17:19:32 10° S 17:23:46 45° W 17:28:07 10° NNW
Cosmos 1340 4.3 17:22:58 10° NNE 17:25:17 15° ENE 17:27:36 10° ESE
ADEOS Rocket 3.3 17:19:10 10° NNE 17:25:24 85° WNW 17:32:20 10° SSW
NOSS 2-1 (E) 3.6 17:22:17 10° WSW 17:25:33 54° NW 17:29:13 10° NE
IRS-1C Rocket 4.5 17:21:16 10° SE 17:26:12 43° ENE 17:31:10 10° N
Cosmos 1356 Rocket 3.5 17:22:30 10° S 17:26:46 80° E 17:31:05 10° NNE
Cosmos 1825 Rocket 3.9 17:23:04 10° N 17:27:23 44° ENE 17:31:38 10° SSE
CORIOLIS 4.2 17:22:06 10° SSE 17:27:26 86° ENE 17:32:51 10° NNW
ERS-2 2.2 17:24:58 10° NNE 17:28:34 56° ESE 17:32:09 10° S
CZ-4 R/B 2.6 17:25:59 10° ESE 17:28:56 21° ENE 17:31:52 10° NNE
BREEZE-M DEB (TANK) 3.8 17:26:44 10° WSW 17:30:02 85° NNW 17:41:40 10° ENE
YAOGAN 1 3.7 17:29:24 10° ESE 17:32:47 23° ENE 17:36:09 10° NNE
Lacrosse 5 2.5 17:28:28 10° W 17:33:24 50° NNW 17:38:21 10° NE
USA 281 3.7 17:27:07 10° SSE 17:33:38 66° WSW 17:40:13 10° NNW
Cosmos 2219 3.9 17:28:52 10° NNW 17:34:04 34° NE 17:39:16 10° ESE
ERBS 3.5 17:31:19 10° W 17:34:26 36° NNW 17:37:35 10° NE
AQUARIUS 4.5 17:32:59 10° S 17:37:28 73° WSW 17:41:59 10° NNW
Cosmos 1655 Rocket 4.4 17:32:06 10° NNW 17:38:29 73° W 17:44:51 10° S
CZ-4B R/B 1.2 17:36:40 10° NNE 17:39:56 67° ESE 17:43:06 10° S
SAR-Lupe-4 4.0 17:36:57 10° NNE 17:40:23 41° E 17:43:48 10° S
Cosmos 1400 Rocket 4.2 17:39:42 10° SE 17:42:44 20° E 17:45:46 10° NE
USA 305 3.6 17:39:02 10° WNW 17:43:10 42° N 17:46:51 12° ENE
Cosmos 44 4.3 17:40:19 10° SSE 17:43:57 24° ESE 17:47:38 10° ENE
Cosmos 1758 Rocket 3.5 17:40:16 10° N 17:44:44 84° ENE 17:49:06 10° S
Cosmos 1726 Rocket 4.0 17:41:42 10° SSE 17:45:40 37° E 17:49:43 10° NNE
CZ-4C R/B 4.1 17:41:10 10° NW 17:45:55 23° N 17:51:22 10° NE
Okean-O 3.2 17:41:54 10° SE 17:45:58 37° ENE 17:50:03 10° N
Meteor 2-14 Rocket 4.4 17:41:30 10° N 17:47:40 77° E 17:53:47 10° SSE
USA 306 3.6 17:45:19 10° WNW 17:49:25 42° N 17:52:49 14° ENE
Meteor 2-21 4.5 17:45:17 10° N 17:51:30 85° E 17:57:37 10° S
Cosmos 1818 4.2 17:48:45 10° SW 17:54:06 57° NW 17:59:30 10° NE
Cosmos 1943 Rocket 4.2 17:49:44 10° W 17:54:12 24° NW 17:58:40 10° N
SAR-Lupe-1 4.0 17:54:34 10° NNE 17:58:08 62° ESE 18:01:42 10° S
Aureole 3 3.8 17:55:44 10° SSE 17:58:27 24° E 18:00:42 12° NE
Cosmos 1331 Rocket 4.0 17:54:48 10° S 17:59:50 56° ESE 18:04:54 10° NNE
Cosmos 1606 Rocket 3.5 17:55:42 10° S 17:59:59 65° E 18:04:22 10° NNE
SKYMED 2 3.6 17:57:37 10° NNE 18:01:55 56° E 18:06:11 10° S
ATLAS 5 CENTAUR R/B 3.4 18:00:34 10° W 18:04:15 27° NNW 18:08:25 10° NNE
Cosmos 2228 2.9 18:00:04 10° S 18:04:17 76° E 18:08:34 10° NNE
Cosmos 1953 4.5 18:01:35 10° SW 18:05:02 29° WNW 18:08:32 10° N
Cosmos 1244 Rocket 4.5 17:59:28 10° N 18:05:37 62° ENE 18:11:47 10° SSE
SL-4 R/B 1.9 18:02:08 10° W 18:05:38 62° N 18:08:01 20° ENE
NOSS 2-2 (D) 4.4 18:00:48 10° NW 18:06:01 63° NE 18:13:17 10° SE
Cosmos 1908 4.4 18:03:03 10° SSW 18:06:45 46° WNW 18:10:29 10° N
CZ-2C R/B 3.5 18:03:09 10° SE 18:08:45 52° ENE 18:14:14 10° N
Cosmos 292 Rocket 3.9 18:04:24 10° S 18:09:01 50° ESE 18:13:41 10° NNE
Cosmos 1346 Rocket 3.9 18:08:45 10° NNE 18:12:04 25° ENE 18:12:50 23° E
Cosmos 2227 Rocket 2.5 18:07:04 10° NNW 18:12:32 46° NE 18:17:08 14° ESE
ARGOS 3.9 18:09:09 11° ESE 18:13:41 33° ENE 18:18:28 10° N
FALCON 9 DEB 4.5 18:12:14 10° S 18:14:44 21° SE 18:15:00 20° SE
Meteor 2-10 Rocket 4.4 18:11:38 10° SE 18:16:04 27° E 18:20:24 10° NNE
Cosmos 1892 3.3 18:13:19 10° N 18:16:55 35° ENE 18:19:18 18° SE
SeaSat 1 2.9 18:14:54 17° ESE 18:18:17 42° NE 18:22:56 10° NNW
CZ-2D R/B 3.2 18:16:30 10° SSE 18:20:19 89° WSW 18:24:10 10° NNW
Meteor 2-16 Rocket 4.4 18:15:32 10° N 18:21:39 88° W 18:27:45 10° S
USA 215 3.6 18:17:29 20° E 18:21:59 53° NNE 18:28:17 10° WNW
Cosmos 1656 4.3 18:17:49 10° SSE 18:22:44 34° ESE 18:26:21 17° NE
Cosmos 2263 Rocket 3.9 18:19:33 10° N 18:22:57 16° NNE 18:24:13 15° NE
Cosmos 968 Rocket 3.8 18:18:35 10° NNW 18:23:38 45° ENE 18:26:57 20° SE
ATLAS 2AS CENTAUR R/B 3.9 18:17:02 10° NW 18:23:47 31° NNE 18:27:53 19° ENE
Cosmos 1110 Rocket 4.0 18:20:15 10° SSW 18:25:31 83° WNW 18:30:47 10° NNE
CSL-04 Rocket 3.8 18:21:06 10° SE 18:26:29 53° ENE 18:31:51 10° N
Cosmos 1953 Rocket 3.8 18:22:10 10° NNW 18:26:32 71° W 18:30:57 10° S
Cosmos 2058 Rocket 3.1 18:22:12 10° S 18:26:37 62° E 18:31:05 10° NNE
Cosmos 1302 Rocket 4.1 18:23:16 10° S 18:28:21 53° ESE 18:33:29 10° NNE
FALCON 9 DEB 4.1 18:26:34 10° SSW 18:29:11 27° SSE 18:29:11 27° SSE
Cosmos 1486 Rocket 4.2 18:24:53 10° NNW 18:30:08 53° ENE 18:33:47 19° SE
HJ-1C 3.9 18:30:27 38° ENE 18:30:27 38° ENE 18:33:26 10° N
Cosmos 1300 2.9 18:27:11 10° SSW 18:30:58 73° W 18:34:49 10° N
USA 307 3.4 18:27:09 10° WNW 18:31:20 48° NNE 18:32:53 32° ENE
Cosmos 1697 Rocket 4.0 18:30:18 10° SSE 18:32:53 20° SE 18:32:53 20° SE
USA 308 3.3 18:31:55 10° WNW 18:36:06 49° NNE 18:37:27 35° ENE
Helios 1A Rocket 3.5 18:34:02 10° S 18:38:08 60° WSW 18:42:13 10° NNW
Cosmos 1503 Rocket 4.5 18:34:23 10° N 18:39:16 38° ENE 18:40:29 34° E
GEOS 3 Rocket 3.7 18:36:45 14° SE 18:41:20 82° SW 18:46:46 10° NW
Timation 2 Rocket 4.4 18:36:04 10° NW 18:42:36 68° WSW 18:49:18 10° SSE
S3M 4.0 18:38:01 10° SSE 18:43:52 51° E 18:49:48 10° NNE
CRYOSAT 2 4.4 18:39:20 10° NNE 18:44:06 52° E 18:48:49 10° SSE
PSLV R/B 4.4 18:41:42 10° N 18:45:53 62° WNW 18:49:58 10° SSW
Cosmos 1825 3.9 18:42:56 10° N 18:44:30 20° NNE 18:44:30 20° NNE
Cosmos 1689 Rocket 3.7 18:45:00 10° N 18:47:40 34° WNW 18:50:19 10° SW
Cosmos 1354 Rocket 4.4 18:43:57 10° NNW 18:48:55 40° ENE 18:49:38 38° ENE
COSMO-SKYMED 1 3.5 18:45:45 10° N 18:49:57 49° WNW 18:54:08 10° SW
Cosmos 1408 3.2 18:47:54 10° N 18:50:33 41° NNE 18:50:33 41° NNE
FALCON 9 DEB 3.9 18:49:19 10° WNW 18:52:35 40° N 18:52:39 40° N
Cosmos 2297 Rocket 2.2 18:47:23 10° NNW 18:53:06 83° WSW 18:57:46 16° SSE
Cosmos 1417 Rocket 4.4 18:49:57 10° S 18:56:10 77° E 19:02:31 10° NNE
In-Cosmos 22 Rocket 4.3 18:51:18 10° NNW 18:56:38 73° W 19:02:01 10° S
Cosmos 2058 2.7 18:53:20 10° N 18:57:26 72° E 18:57:58 62° SE
MOS 1 Rocket 3.1 18:53:42 10° NNE 18:58:16 70° ESE 19:03:06 10° S
H-2A R/B 2.1 18:54:39 10° SSE 19:00:04 89° WSW 19:05:34 10° NNW
Cosmos 1340 3.5 18:57:32 10° NNW 19:01:12 49° W 19:04:51 10° S
SL-08 RB Rocket 3.9 19:03:11 49° NE 19:03:11 49° NE 19:07:03 10° N
CSL-04 Debris 4.2 18:57:41 10° SSE 19:03:07 79° WSW 19:08:37 10° NNW
CZ-4 R/B 2.7 19:00:04 10° SSW 19:03:45 39° W 19:07:26 10° NNW
Aureole 3 Rocket 3.7 19:01:50 10° SSW 19:05:32 55° WNW 19:10:38 10° N
YAOGAN 1 3.6 19:04:28 10° S 19:08:37 45° W 19:12:48 10° NNW
ERBS 4.4 19:08:47 10° NW 19:10:58 20° NNW 19:10:58 20° NNW
Cosmos 1076 Rocket 3.7 19:07:27 10° N 19:10:59 58° NNE 19:10:59 58° NNE
Cosmos 1553 Rocket 4.2 19:08:49 10° SSW 19:15:11 73° WNW 19:21:29 10° N
Lacrosse 5 3.0 19:12:39 10° WNW 19:17:14 33° N 19:18:09 31° NNE
Ariane Rocket 3.3 19:18:51 50° NE 19:18:51 50° NE 19:23:07 10° N
Cosmos 2219 3.9 19:12:54 10° NW 19:18:29 52° WSW 19:23:21 14° S
Cosmos 1400 Rocket 4.1 19:15:02 10° SW 19:18:56 41° WNW 19:22:51 10° N
Geosat 4.2 19:17:11 19° NNE 19:20:50 69° WNW 19:25:50 10° SW
BREEZE-M R/B 3.9 19:16:54 10° W 19:21:21 89° NNE 19:23:14 52° E
USA 305 3.3 19:19:19 10° WNW 19:23:00 59° NNW 19:23:00 59° NNW
MetOp-A 4.4 19:24:28 51° NE 19:24:28 51° NE 19:28:57 10° N
Cosmos 44 3.7 19:20:21 10° SW 19:24:49 55° NW 19:26:05 41° N
Cosmos 2082 3.6 19:23:43 10° NNW 19:29:30 90° NE 19:30:18 68° SSE
USA 306 3.5 19:25:33 10° WNW 19:28:58 54° NW 19:28:58 54° NW
CZ-4C R/B 3.7 19:30:32 10° NW 19:36:30 33° NNE 19:37:16 33° NE
Meteor 2-1 Rocket 4.4 19:39:12 10° SSW 19:44:41 67° WNW 19:50:13 10° N
SL-4 R/B 3.8 19:41:50 10° WNW 19:43:36 27° WNW 19:43:36 27° WNW
ATLAS 5 CENTAUR R/B 4.1 19:47:35 10° NW 19:50:35 16° N 19:51:05 16° N
IRS-1A Rocket 4.3 19:53:01 75° NW 19:53:01 75° NW 19:58:11 10° NNW
NOSS 3-4 (A) 3.8 19:47:00 10° NW 19:53:45 62° NE 19:53:45 62° NE
ARGOS 4.1 19:50:40 22° SSW 19:53:48 44° W 19:59:01 10° NNW
NOSS 3-4 (C) 3.8 19:47:07 10° NW 19:53:51 62° NE 19:53:51 62° NE
SeaSat 1 3.8 19:54:42 31° SW 19:55:52 35° WSW 20:00:23 10° NW
Cosmos 2227 Rocket 3.6 19:51:24 10° NW 19:56:28 34° WSW 19:59:01 23° SSW
USA 215 3.2 20:04:50 80° SW 20:04:50 80° SW 20:11:24 10° WNW
Cosmos 2263 Rocket 3.4 20:02:33 10° NNW 20:05:56 35° N 20:05:56 35° N
Cosmos 1709 Rocket 4.5 20:02:51 10° NNW 20:09:04 58° W 20:10:33 47° SW
ATLAS 2AS CENTAUR R/B 3.0 20:08:35 10° NW 20:15:19 62° N 20:15:19 62° N
Cosmos 1697 Rocket 4.4 20:12:33 10° SW 20:14:44 24° SW 20:14:44 24° SW
Lacrosse 5 4.5 20:56:10 10° NW 20:57:21 17° NW 20:57:21 17° NW
CZ-4C R/B 4.1 21:18:57 10° NW 21:22:26 34° NW 21:22:26 34° NW
